This demonstration page uses our WeatherBlox Daily Observations layout. Learn more.

Left ArrowRight Arrow

53.62937, 11.41316

Hourly Observations for November 14, 2021

Temp ( °F °C ) Dew Point ( °F °C ) Humidity (%) Winds ( mph kmh ) Pressure ( in mb ) Visibility ( mi km ) Precip ( " mm )
12:20 am 00:20 Mostly Cloudy 45 7 43 6 93 93 N 1 2 30.06 1018 3 5 N/A
12:50 am 00:50 Mostly Cloudy 45 7 43 6 93 93 VRB 2 4 30.06 1018 3 5 N/A
1:20 am 01:20 Mostly Cloudy 45 7 43 6 93 93 VRB 1 2 30.09 1019 3 5 N/A
1:50 am 01:50 Mostly Cloudy 45 7 43 6 93 93 Calm 30.09 1019 3 5 N/A
2:20 am 02:20 Mostly Cloudy 45 7 45 7 100 100 NNE 1 2 30.09 1019 2 4 N/A
2:50 am 02:50 Mostly Cloudy 45 7 45 7 100 100 VRB 1 2 30.12 1020 2 3 N/A
3:20 am 03:20 Mostly Clear 45 7 45 7 100 100 VRB 1 2 30.12 1020 2 3 N/A
3:50 am 03:50 Partly Cloudy 45 7 45 7 100 100 Calm 30.12 1020 2 3 N/A
4:20 am 04:20 Partly Cloudy 45 7 45 7 100 100 VRB 2 4 30.12 1020 2 4 N/A
4:50 am 04:50 Mostly Cloudy 45 7 45 7 100 100 VRB 2 4 30.15 1021 2 4 N/A
5:20 am 05:20 Mostly Cloudy 45 7 45 7 100 100 NE 3 6 30.15 1021 2 3 N/A
5:50 am 05:50 Mostly Cloudy 45 7 45 7 100 100 E 3 6 30.15 1021 2 4 N/A
6:20 am 06:20 Mostly Cloudy 45 7 45 7 100 100 ENE 2 4 30.15 1021 2 4 N/A
6:50 am 06:50 Mostly Cloudy 45 7 45 7 100 100 ENE 5 7 30.18 1022 3 5 N/A
7:20 am 07:20 Mostly Cloudy 45 7 43 6 93 93 ENE 6 9 30.18 1022 3 5 N/A
7:50 am 07:50 Mostly Cloudy with Mist and Fog 45 7 43 6 93 93 ENE 7 11 30.21 1023 3 5 N/A
8:20 am 08:20 Partly Cloudy with Mist and Fog 45 7 43 6 93 93 ENE 6 9 30.21 1023 3 5 N/A
8:50 am 08:50 Cloudy with Mist and Fog 45 7 43 6 93 93 E 5 7 30.24 1024 3 5 N/A
9:20 am 09:20 Cloudy with Mist and Fog 45 7 43 6 93 93 ENE 5 7 30.24 1024 3 5 N/A
9:50 am 09:50 Cloudy 45 7 43 6 93 93 E 3 6 30.27 1025 4 6 N/A
10:20 am 10:20 Cloudy 45 7 43 6 93 93 E 3 6 30.27 1025 4 6 N/A
10:50 am 10:50 Mostly Cloudy 46 8 43 6 87 87 ENE 3 6 30.27 1025 5 8 N/A
11:20 am 11:20 Mostly Cloudy 46 8 43 6 87 87 E 3 6 30.27 1025 4 7 N/A
11:50 am 11:50 Mostly Cloudy 46 8 43 6 87 87 E 5 7 30.30 1026 4 7 N/A
12:20 pm 12:20 Cloudy 46 8 43 6 87 87 E 5 7 30.30 1026 4 7 N/A
12:50 pm 12:50 Cloudy 46 8 43 6 87 87 NE 5 7 30.30 1026 5 8 N/A
1:20 pm 13:20 Cloudy 46 8 43 6 87 87 NE 6 9 30.30 1026 5 8 N/A
1:50 pm 13:50 Cloudy 46 8 43 6 87 87 NE 5 7 30.30 1026 5 8 N/A
2:20 pm 14:20 Cloudy 46 8 43 6 87 87 ENE 6 9 30.30 1026 4 7 N/A
2:50 pm 14:50 Cloudy 46 8 43 6 87 87 ENE 7 11 30.33 1027 5 8 N/A
3:20 pm 15:20 Cloudy 46 8 41 5 82 82 NE 8 13 30.33 1027 5 8 N/A
3:50 pm 15:50 Cloudy 46 8 41 5 82 82 ENE 7 11 30.33 1027 5 8 N/A
4:20 pm 16:20 Cloudy 46 8 41 5 82 82 E 8 13 30.33 1027 6 9 N/A
4:50 pm 16:50 Cloudy 46 8 41 5 82 82 E 6 9 30.36 1028 6 9 N/A
5:20 pm 17:20 Cloudy 46 8 41 5 82 82 E 8 13 30.36 1028 6 9 N/A
5:50 pm 17:50 Mostly Cloudy 46 8 41 5 82 82 E 9 15 30.36 1028 6 9 N/A
6:20 pm 18:20 Cloudy 46 8 41 5 82 82 E 6 9 30.36 1028 6 9 N/A
6:50 pm 18:50 Cloudy 46 8 41 5 82 82 E 6 9 30.36 1028 6 9 N/A
7:20 pm 19:20 Cloudy 46 8 41 5 82 82 E 5 7 30.39 1029 6 9 N/A
7:50 pm 19:50 Cloudy 45 7 41 5 87 87 E 5 7 30.39 1029 6 9 N/A
8:20 pm 20:20 Cloudy 46 8 39 4 76 76 E 7 11 30.39 1029 30 48 N/A
8:50 pm 20:50 Cloudy 46 8 39 4 76 76 E 7 11 30.39 1029 30 48 N/A
9:20 pm 21:20 Cloudy 46 8 39 4 76 76 E 7 11 30.39 1029 30 48 N/A
9:50 pm 21:50 Cloudy 46 8 39 4 76 76 E 8 13 30.42 1030 30 48 N/A
10:20 pm 22:20 Cloudy 46 8 39 4 76 76 ESE 8 13 30.42 1030 30 48 N/A
10:50 pm 22:50 Cloudy 46 8 39 4 76 76 E 7 11 30.42 1030 30 48 N/A
11:20 pm 23:20 Cloudy 45 7 39 4 81 81 ESE 6 9 30.42 1030 30 48 N/A
11:50 pm 23:50 Cloudy 45 7 39 4 81 81 E 6 9 30.42 1030 30 48 N/A

Powered by AerisWeather